Regional Weather Roundup
Issued by NWS

Home | Current Version | Previous Version | Graphics & Text | Print | Product List | Glossary On
Versions: 1 2 3 4 5 6 7 8 9 10 11 12 13 14 15 16 17 18 19 20 21 22 23 24 25 26 27 28 29 30 31 32 33 34 35 36 37 38 39 40 41 42 43 44 45 46 47 48 49 50
000
ASUS43 KIND 140609
RWRIN

WEATHER ROUNDUP FOR INDIANA
NATIONAL WEATHER SERVICE INDIANAPOLIS IN
100 AM EST SUN FEB 14 2016

NOTE: "FAIR" INDICATES FEW OR NO CLOUDS BELOW 12,000 FEET WITH NO
SIGNIFICANT WEATHER AND/OR OBSTRUCTIONS TO VISIBILITY.

* - STATION DOES NOT REPORT WEATHER SUCH AS PRECIPITATION OR FOG.

+ - STATION NOT QUALITY CONTROLLED BY THE NATIONAL WEATHER SERVICE.
    USE DATA WITH CAUTION...ESPECIALLY DEWPOINT AND RELATIVE
    HUMIDITY OBSERVATIONS.

INZ001>003-010>013-019-020-140700-
NORTHWEST INDIANA

CITY           SKY/WX    TMP DP  RH WIND       PRES   REMARKS
GARY /AIRPORT/ CLOUDY    13   0  55 SE5       30.48F WCI   5
KNOX *+        PTCLDY     5   0  78 SE3       30.48S
LA PORTE +     CLOUDY     4   0  84 CALM      30.48S
6HR MIN TEMP:  -1; 6HR MAX TEMP:   8;

MICHIGAN CITY+ MOCLDY     3   0  85 CALM      30.48F
MONTICELLO +   CLOUDY    11  -2  56 E5        30.48S WCI   3
6HR MIN TEMP:  10; 6HR MAX TEMP:  14;

RENSSELAER +   PTCLDY    14   0  52 E8        30.47F WCI   3
VALPARAISO     CLOUDY     8   1  73 CALM      30.47F
6HR MIN TEMP:   6; 6HR MAX TEMP:  10;


$$

LMZ046-743>745-140700-
SOUTHERN LAKE MICHIGAN

STATION/POSITION TIME  TEMP    WIND        PRES    WAVE
                       AIR SEA DIR/SP/G            HT
                 (UTC) (F)     (DEG/KT/KT) (MB)    (FT)
BURNS HARBOR     0500   11     180/  6/  8 1032.5F
MICHIGAN CITY    0500   10     140/  7/  9   N/A

$$

INZ004-005-014>016-021>024-140700-
NORTH CENTRAL INDIANA

CITY           SKY/WX    TMP DP  RH WIND       PRES   REMARKS
GOSHEN         CLOUDY     9   2  73 SW5       30.47S WCI   1
6HR MIN TEMP:   7; 6HR MAX TEMP:  12; 6HR PCP: TRACE;

LOGANSPORT +   CLOUDY    10   0  61 E3        30.48F
PERU/GRISSOM   CLOUDY     8   0  68 E2        30.46S
6HR MIN TEMP:   7; 6HR MAX TEMP:  11;

ROCHESTER +    CLOUDY     3  -6  66 CALM      30.48S
SOUTH BEND     CLOUDY     7   2  80 SW3       30.48S HAZE
6HR MIN TEMP:   5; 6HR MAX TEMP:  11; 6HR PCP: TRACE;

WARSAW +       CLOUDY     5   1  85 CALM      30.47F

$$

INZ006>009-017-018-025>027-140700-
NORTHEAST INDIANA

CITY           SKY/WX    TMP DP  RH WIND       PRES   REMARKS
ANGOLA *+      CLOUDY    10   7  85 CALM      30.44S
AUBURN +       CLOUDY    10   5  79 CALM      30.48S
FORT WAYNE     CLOUDY     6   0  76 CALM      30.49S
6HR MIN TEMP:   5; 6HR MAX TEMP:  11;

HUNTINGTON +   CLOUDY     4  -2  76 CALM      30.48S
6HR MIN TEMP:   3; 6HR MAX TEMP:  10;


$$

INZ028-029-035-036-043>045-051>053-140700-
WEST CENTRAL INDIANA

CITY           SKY/WX    TMP DP  RH WIND       PRES   REMARKS
CRAWFORDSVL +  CLOUDY    12   3  67 CALM      30.45F
6HR MIN TEMP:   7; 6HR MAX TEMP:  12;

GREENCASTLE +  CLOUDY    16   0  48 E5        30.45F WCI   9
LAFAYETTE      CLOUDY    12   4  70 E7        30.48S WCI   1
6HR MIN TEMP:   9; 6HR MAX TEMP:  15;

TERRE HAUTE    CLOUDY    17   2  51 E7        30.46F WCI   8
6HR MIN TEMP:  15; 6HR MAX TEMP:  18;


$$

INZ030>032-037>040-046>048-054>057-064-065-140700-
CENTRAL INDIANA

CITY           SKY/WX    TMP DP  RH WIND       PRES   REMARKS
FISHERS *+     CLOUDY    10   3  72 E3        30.47S
FRANKFORT +    PTCLDY    12  -2  52 E8        30.48R WCI   1
6HR MIN TEMP:  10; 6HR MAX TEMP:  15;

GREENWOOD *+   PTCLDY    14   3  62 E6        30.46F WCI   5
INDIANAPOLIS   CLOUDY    15   0  51 E9        30.44F WCI   3
6HR MIN TEMP:  13; 6HR MAX TEMP:  16;

-EAGLE CREEK   PTCLDY    14   1  56 E6        30.45F WCI   5
6HR MIN TEMP:  13; 6HR MAX TEMP:  16;

KOKOMO *+      CLOUDY     7   0  72 E3        30.47S
6HR MIN TEMP:   7; 6HR MAX TEMP:  12;

MARION +       CLOUDY     4  -6  62 CALM      30.48S
MT COMFORT *+  PTCLDY    10   1  67 E6        30.47S WCI   1
SHELBYVILLE    CLOUDY    13   2  61 E8        30.46F WCI   2
6HR MIN TEMP:  10; 6HR MAX TEMP:  17;

ZIONSVILLE +   CLOUDY    11   1  65 E8        30.46F WCI  -1
6HR MIN TEMP:   8; 6HR MAX TEMP:  14;


$$

INZ033-034-041-042-049-050-058-059-140700-
EAST CENTRAL INDIANA

CITY           SKY/WX    TMP DP  RH WIND       PRES   REMARKS
MUNCIE         CLOUDY     7  -2  66 E3        30.47S
6HR MIN TEMP:   4; 6HR MAX TEMP:  13;


$$

INZ060-061-067>069-081>083-085>088-140700-
SOUTHWEST INDIANA

CITY           SKY/WX    TMP DP  RH WIND       PRES   REMARKS
EVANSVILLE     CLOUDY    23   3  42 E7        30.47S WCI  15
6HR MIN TEMP:  23; 6HR MAX TEMP:  24;

HUNTINGBURG *+ CLOUDY    19   3  49 E5        30.46S WCI  13
6HR MIN TEMP:  18; 6HR MAX TEMP:  19;

WASHINGTON +   CLOUDY    19   0  42 E7        30.46F WCI  10
6HR MIN TEMP:  18; 6HR MAX TEMP:  19;


$$

INZ062-063-066-070>080-084-089>092-140700-
SOUTH CENTRAL AND SOUTHEAST INDIANA

CITY           SKY/WX    TMP DP  RH WIND       PRES   REMARKS
BEDFORD +      CLOUDY    18   5  57 E6        30.45F WCI   9
BLOOMINGTON    MOCLDY    17   0  47 E7        30.43F WCI   8
6HR MIN TEMP:  14; 6HR MAX TEMP:  18;

MADISON *+     CLOUDY    18   3  53 E3        30.47F
NORTH VERNON + CLOUDY    16   7  67 CALM      30.47S
SEYMOUR +      MOCLDY    19   5  53 E6        30.47F WCI  11

$$




USA.gov is the U.S. government's official web portal to all federal, state and local government web resources and services.